Hourly Data Report for October 09, 2016

All times are specified in Local Standard Time (LST). Add 1 hour to adjust for Daylight Saving Time where and when it is observed.

HALL BEACH A
NUNAVUT

68°46'33.000" N
81°14'33.000" W
9.10 m
2402354
71293
YUX

Related Data

No related data is available for this station

Download Data

Hourly Data (October 2016)
Hourly Data Report for October 9, 2016
Temp Definition
°C
Dew Point Temp Definition
°C
Rel Hum Definition
%
Wind Dir Definition
10's deg

Wind Spd Definition
km/h
Visibility Definition
km
Stn Press Definition
kPa
Hmdx Definition


Wind Chill Definition


Weather Definition


TIME
00:00 Legend Double Dagger -4.8 -5.6 94 31 13 16.1 101.10   -10 LegendNANA
01:00 Legend Double Dagger -4.8 -5.5 95 29 9 16.1 101.10   -9 Snow
02:00 Legend Double Dagger -4.6 -5.3 95 31 11 16.1 101.09   -9 LegendNANA
03:00 Legend Double Dagger -4.8 -5.5 95 32 17 16.1 101.09   -11 LegendNANA
04:00 Legend Double Dagger -5.8 -6.3 96 30 8 16.1 101.07   -10 LegendNANA
05:00 Legend Double Dagger -5.8 -6.3 96 29 11 16.1 101.06   -11 Snow
06:00 Legend Double Dagger -5.9 -6.4 96 28 13 16.1 101.05   -11 LegendNANA
07:00 Legend Double Dagger -7.0 -7.4 97 29 17 16.1 101.03   -13 LegendNANA
08:00 Legend Double Dagger -7.3 -7.8 96 29 17 16.1 101.03   -14 LegendNANA
09:00 Legend Double Dagger -5.9 -6.4 96 29 17 14.5 101.03   -12 Snow
10:00 Legend Double Dagger -5.6 -6.3 95 30 15 12.9 101.01   -11 Snow
11:00 Legend Double Dagger -5.6 -6.4 94 30 13 16.1 100.99   -11 Snow
12:00 Legend Double Dagger -4.4 -5.4 93 30 13 16.1 100.99   -9 LegendNANA
13:00 Legend Double Dagger -4.4 -5.5 92 31 15 16.1 101.00   -10 Snow
14:00 Legend Double Dagger -4.1 -5.4 91 33 21 16.1 100.99   -11 Snow
15:00 Legend Double Dagger -5.2 -6.2 93 33 13 16.1 101.00   -10 LegendNANA
16:00 Legend Double Dagger -5.3 -6.4 92 33 15 16.1 100.99   -11 LegendNANA
17:00 Legend Double Dagger -6.2 -6.9 95 29 13 16.1 100.97   -12 LegendNANA
18:00 Legend Double Dagger -6.6 -7.4 94 31 9 16.1 100.94   -11 LegendNANA
19:00 Legend Double Dagger -5.9 -6.9 93 30 9 16.1 100.91   -10 LegendNANA
20:00 Legend Double Dagger -5.4 -6.2 94 26 9 3.2 100.88   -9 Snow
21:00 Legend Double Dagger -5.5 -6.0 96 22 5 2.8 100.81   -8 Snow
22:00 Legend Double Dagger -5.7 -6.2 96   0 6.4 100.73     Snow
23:00 Legend Double Dagger -5.3 -5.8 96 33 4 2.8 100.67   -7 Snow

Notes on Data Quality.

Legend

  • E = Estimated
  • M = Missing
  • NA = Not Available
  • ‡ = Partner data that is not subject to review by the National Climate Archives
Date modified: